GW4086 Weather Reports


time (UTC)temp
C
wind
direction
speed
KPH
gust
KPH
rain 1hr
cm
rain 24hr
cm
rain mn
cm
humidity
%
barometer
mb
20260503013052 20 0 0.0 0.0 0.00 0.00 0.00 29 1014.6
20260503011552 20 0 0.0 3.2 0.00 0.00 0.00 29 1014.6
20260503010053 19 299 1.6 3.2 0.00 0.00 0.00 30 1014.8
20260503004552 19 288 1.6 6.4 0.00 0.00 0.00 30 1014.9
20260503003056 19 352 4.8 6.4 0.00 0.00 0.00 30 1015.0
20260503001609 20 302 6.4 8.0 0.00 0.00 0.00 30 1015.1
20260503000053 20 321 0.0 9.7 0.00 0.00 0.00 28 1015.3
20260502234553 20 271 3.2 6.4 0.00 0.00 0.00 28 1015.2
20260502233057 21 158 3.2 12.9 0.00 0.00 0.00 28 1015.5
20260502231551 20 340 3.2 8.0 0.00 0.00 0.00 29 1015.8
20260502230053 20 282 3.2 11.3 0.00 0.00 0.00 30 1016.0
20260502224551 20 293 8.0 14.5 0.00 0.00 0.00 30 1016.1
20260502223054 19 307 4.8 22.5 0.00 0.00 0.00 31 1016.3
20260502221554 20 353 4.8 11.3 0.00 0.00 0.00 31 1016.6
20260502220055 20 296 1.6 14.5 0.00 0.00 0.00 30 1016.7
20260502214600 19 347 8.0 11.3 0.00 0.00 0.00 32 1016.8
20260502213051 20 316 4.8 11.3 0.00 0.00 0.00 31 1017.0
20260502211551 20 77 4.8 12.9 0.00 0.00 0.00 32 1017.2
20260502210114 19 124 3.2 12.9 0.00 0.00 0.00 33 1017.5
20260502204555 19 115 6.4 17.7 0.00 0.00 0.00 34 1017.6
20260502203055 18 61 4.8 16.1 0.00 0.00 0.00 35 1017.7
20260502201607 19 351 11.3 20.9 0.00 0.00 0.00 33 1017.8
20260502200053 19 57 6.4 25.7 0.00 0.00 0.00 35 1018.1
20260502194555 19 34 9.7 19.3 0.00 0.00 0.00 34 1018.2
20260502193058 18 335 6.4 14.5 0.00 0.00 0.00 33 1018.3
20260502191553 18 330 4.8 11.3 0.00 0.00 0.00 33 1018.3
20260502190057 18 294 9.7 14.5 0.00 0.00 0.00 34 1018.4
20260502184604 18 52 1.6 14.5 0.00 0.00 0.00 34 1018.6
20260502183102 18 326 1.6 8.0 0.00 0.00 0.00 34 1018.8
20260502181605 19 50 8.0 14.5 0.00 0.00 0.00 34 1018.9
20260502163059 17 332 9.7 19.3 0.00 0.00 0.00 37 1019.3
20260502161556 17 51 6.4 19.3 0.00 0.00 0.00 38 1019.3
20260502151603 16 88 4.8 11.3 0.00 0.00 0.00 38 1019.5
20260502150105 15 63 4.8 11.3 0.00 0.00 0.00 40 1019.4
20260502123105 7 0 0.0 3.2 0.00 0.00 0.00 55 1018.2
20260502121557 7 0 0.0 8.0 0.00 0.00 0.00 54 1018.1
20260502114558 6 269 1.6 6.4 0.00 0.00 0.00 59 1017.8
20260502113053 6 0 0.0 1.6 0.00 0.00 0.00 59 1017.4
20260502111554 6 0 1.6 4.8 0.00 0.00 0.00 56 1017.2
20260502110059 7 297 4.8 6.4 0.00 0.00 0.00 56 1017.0
20260502104557 6 139 3.2 4.8 0.00 0.00 0.00 61 1016.8
20260502103100 6 0 0.0 3.2 0.00 0.00 0.00 57 1016.6
20260502101620 6 297 6.4 9.7 0.00 0.00 0.00 54 1016.4
20260502100116 6 269 4.8 9.7 0.00 0.00 0.00 55 1016.1
20260502080108 5 0 0.0 4.8 0.00 0.00 0.00 49 1015.3
20260502070056 7 0 0.0 3.2 0.00 0.00 0.00 44 1014.9
20260502064558 7 262 3.2 8.0 0.00 0.00 0.00 43 1015.0
20260502063057 8 170 1.6 6.4 0.00 0.00 0.00 46 1015.0
20260502061554 9 238 0.0 4.8 0.00 0.00 0.00 43 1014.9
20260502060058 10 290 6.4 9.7 0.00 0.00 0.00 42 1014.8
20260502054559 9 277 4.8 6.4 0.00 0.00 0.00 43 1014.7
20260502053113 8 292 4.8 4.8 0.00 0.00 0.00 46 1014.6
20260502051552 9 290 3.2 4.8 0.00 0.00 0.00 43 1014.6
20260502050052 8 257 0.0 3.2 0.00 0.00 0.00 42 1014.6
20260502044553 10 261 3.2 4.8 0.00 0.00 0.00 40 1014.4
20260502043106 10 286 1.6 3.2 0.00 0.00 0.00 38 1014.3
20260502041553 11 250 3.2 4.8 0.00 0.00 0.00 35 1014.3
20260502040054 11 247 4.8 6.4 0.00 0.00 0.00 35 1014.2
20260502034551 12 243 6.4 8.0 0.00 0.00 0.00 35 1014.2
20260502033102 12 216 1.6 3.2 0.00 0.00 0.00 33 1014.0
20260502031552 13 0 0.0 0.0 0.00 0.00 0.00 31 1013.7
20260502030101 15 0 0.0 4.8 0.00 0.00 0.00 27 1013.5
20260502024550 15 0 0.0 0.0 0.00 0.00 0.00 26 1013.3
20260502023110 16 0 0.0 0.0 0.00 0.00 0.00 25 1013.1
20260502021558 18 0 0.0 0.0 0.00 0.00 0.00 23 1013.0
20260502020053 20 0 0.0 3.2 0.00 0.00 0.00 21 1013.0
20260502014600 21 287 1.6 4.8 0.00 0.00 0.00 20 1012.9